• In Germany
  • List of Countries
  • For 7 days
  • Water Temperature
  • Satellite Maps
  • Weather Map
  • Weather Widgets
  • user-avatar
    Login

    Hourly Weather Manama

    Today, 21 November, Tuesday

    Time Temperature Precipitation Wind Pressure Humidity
    00:00 +28°C° 0 mm 6 mps 761 mmHg 55%
    01:00 +28°C° 0 mm 6 mps 761 mmHg 55%
    02:00 +28°C° 0 mm 6 mps 761 mmHg 56%
    03:00 +27°C° 0 mm 6 mps 761 mmHg 57%
    04:00 +27°C° 0 mm 6 mps 761 mmHg 57%
    05:00 +27°C° 0 mm 5 mps 761 mmHg 57%
    06:00 +27°C° 0 mm 5 mps 761 mmHg 57%
    07:00 +28°C° 0 mm 6 mps 761 mmHg 55%
    08:00 +28°C° 0 mm 6 mps 761 mmHg 52%
    09:00 +29°C° 0 mm 6 mps 762 mmHg 50%
    10:00 +30°C° 0 mm 6 mps 761 mmHg 47%
    11:00 +32°C° 0 mm 6 mps 761 mmHg 44%
    12:00 +32°C° 0 mm 6 mps 760 mmHg 41%
    13:00 +32°C° 0 mm 5 mps 760 mmHg 39%
    14:00 +33°C° 0 mm 5 mps 759 mmHg 36%
    15:00 +33°C° 0 mm 4 mps 759 mmHg 33%
    16:00 +32°C° 0 mm 4 mps 759 mmHg 35%
    17:00 +30°C° 0 mm 4 mps 759 mmHg 37%
    18:00 +29°C° 0 mm 4 mps 759 mmHg 39%
    19:00 +29°C° 0 mm 5 mps 759 mmHg 42%
    20:00 +29°C° 0 mm 6 mps 759 mmHg 45%
    21:00 +29°C° 0 mm 7 mps 759 mmHg 48%
    22:00 +29°C° 0 mm 7 mps 759 mmHg 48%
    23:00 +29°C° 0 mm 7 mps 758 mmHg 48%

    Tomorrow, 22 November, Wednesday

    Time Temperature Precipitation Wind Pressure Humidity
    00:00 +29°C° 0 mm 7 mps 758 mmHg 48%
    01:00 +28°C° 0 mm 7 mps 758 mmHg 49%
    02:00 +28°C° 0 mm 7 mps 758 mmHg 49%
    03:00 +28°C° 0 mm 7 mps 758 mmHg 50%
    04:00 +28°C° 0 mm 6 mps 758 mmHg 47%
    05:00 +28°C° 0 mm 6 mps 759 mmHg 45%
    06:00 +27°C° 0 mm 5 mps 759 mmHg 43%
    07:00 +28°C° 0.2 mm 5 mps 759 mmHg 40%
    08:00 +28°C° 0.2 mm 5 mps 760 mmHg 37%
    09:00 +28°C° 0.2 mm 5 mps 760 mmHg 34%
    10:00 +29°C° 0 mm 5 mps 760 mmHg 32%
    11:00 +30°C° 0 mm 5 mps 759 mmHg 30%
    12:00 +32°C° 0 mm 5 mps 759 mmHg 27%
    13:00 +32°C° 0 mm 5 mps 758 mmHg 27%
    14:00 +33°C° 0 mm 4 mps 758 mmHg 27%
    15:00 +33°C° 0 mm 4 mps 757 mmHg 27%
    16:00 +32°C° 0 mm 5 mps 758 mmHg 31%
    17:00 +30°C° 0 mm 5 mps 758 mmHg 34%
    18:00 +29°C° 0 mm 6 mps 758 mmHg 38%
    19:00 +29°C° 0 mm 6 mps 758 mmHg 41%
    20:00 +28°C° 0 mm 6 mps 758 mmHg 43%
    21:00 +28°C° 0 mm 6 mps 759 mmHg 46%
    22:00 +28°C° 0 mm 6 mps 758 mmHg 47%
    23:00 +28°C° 0 mm 6 mps 758 mmHg 48%

    Day after tomorrow, 23 November, Thursday

    Time Temperature Precipitation Wind Pressure Humidity
    00:00 +28°C° 0 mm 5 mps 758 mmHg 49%
    01:00 +28°C° 0 mm 6 mps 758 mmHg 48%
    02:00 +28°C° 0 mm 6 mps 758 mmHg 47%
    03:00 +28°C° 0 mm 6 mps 758 mmHg 46%
    04:00 +27°C° 0 mm 5 mps 758 mmHg 46%
    05:00 +27°C° 0 mm 4 mps 758 mmHg 47%
    06:00 +26°C° 0 mm 4 mps 759 mmHg 48%
    07:00 +26°C° 0 mm 3 mps 759 mmHg 46%
    08:00 +27°C° 0 mm 3 mps 760 mmHg 45%
    09:00 +28°C° 0 mm 2 mps 760 mmHg 44%
    10:00 +28°C° 0 mm 2 mps 760 mmHg 42%
    11:00 +29°C° 0 mm 2 mps 760 mmHg 41%
    12:00 +29°C° 0 mm 2 mps 759 mmHg 39%
    13:00 +29°C° 0.3 mm 2 mps 759 mmHg 40%
    14:00 +29°C° 0.3 mm 2 mps 759 mmHg 40%
    15:00 +29°C° 0.3 mm 2 mps 759 mmHg 40%
    16:00 +28°C° 0.2 mm 2 mps 759 mmHg 43%
    17:00 +27°C° 0.2 mm 2 mps 759 mmHg 45%
    18:00 +26°C° 0.2 mm 3 mps 760 mmHg 48%
    19:00 +26°C° 0.5 mm 3 mps 760 mmHg 52%
    20:00 +26°C° 0.5 mm 4 mps 761 mmHg 55%
    21:00 +26°C° 0.5 mm 4 mps 761 mmHg 59%
    22:00 +25°C° 0.8 mm 5 mps 761 mmHg 62%
    23:00 +25°C° 0.8 mm 5 mps 761 mmHg 64%

    24 November, Friday

    Time Temperature Precipitation Wind Pressure Humidity
    00:00 +25°C° 0.8 mm 5 mps 761 mmHg 67%
    01:00 +23°C° 0.8 mm 5 mps 761 mmHg 66%
    02:00 +23°C° 0.8 mm 5 mps 761 mmHg 66%
    03:00 +23°C° 0.8 mm 5 mps 761 mmHg 65%
    04:00 +23°C° 0.3 mm 5 mps 761 mmHg 66%
    05:00 +23°C° 0.3 mm 4 mps 761 mmHg 66%
    06:00 +22°C° 0.3 mm 3 mps 762 mmHg 66%
    07:00 +23°C° 0.1 mm 4 mps 762 mmHg 63%
    08:00 +25°C° 0.1 mm 4 mps 763 mmHg 60%
    09:00 +25°C° 0.1 mm 4 mps 763 mmHg 57%
    10:00 +25°C° 0 mm 3 mps 763 mmHg 56%
    11:00 +26°C° 0 mm 3 mps 763 mmHg 54%
    12:00 +26°C° 0 mm 3 mps 763 mmHg 53%
    13:00 +26°C° 0.2 mm 4 mps 762 mmHg 53%
    14:00 +26°C° 0.2 mm 5 mps 762 mmHg 53%
    15:00 +26°C° 0.2 mm 5 mps 762 mmHg 53%
    16:00 +26°C° 0 mm 6 mps 763 mmHg 54%
    17:00 +26°C° 0 mm 7 mps 763 mmHg 54%
    18:00 +26°C° 0 mm 7 mps 763 mmHg 55%
    19:00 +24°C° 0 mm 8 mps 764 mmHg 54%
    20:00 +24°C° 0 mm 8 mps 764 mmHg 54%
    21:00 +24°C° 0 mm 8 mps 765 mmHg 53%
    22:00 +24°C° 0 mm 8 mps 764 mmHg 53%
    23:00 +24°C° 0 mm 9 mps 764 mmHg 53%

    25 November, Saturday

    Time Temperature Precipitation Wind Pressure Humidity
    00:00 +24°C° 0 mm 9 mps 764 mmHg 53%
    01:00 +24°C° 0 mm 9 mps 764 mmHg 53%
    02:00 +24°C° 0 mm 9 mps 764 mmHg 52%
    03:00 +23°C° 0 mm 9 mps 764 mmHg 52%
    04:00 +23°C° 0 mm 9 mps 764 mmHg 51%
    05:00 +23°C° 0 mm 9 mps 765 mmHg 50%
    06:00 +23°C° 0 mm 8 mps 765 mmHg 49%
    07:00 +24°C° 0 mm 9 mps 765 mmHg 47%
    08:00 +24°C° 0 mm 9 mps 766 mmHg 44%
    09:00 +26°C° 0 mm 9 mps 766 mmHg 41%
    10:00 +26°C° 0 mm 9 mps 765 mmHg 40%
    11:00 +26°C° 0 mm 9 mps 765 mmHg 39%
    12:00 +27°C° 0 mm 9 mps 764 mmHg 38%
    13:00 +27°C° 0 mm 9 mps 764 mmHg 39%
    14:00 +26°C° 0 mm 9 mps 764 mmHg 40%
    15:00 +26°C° 0 mm 9 mps 764 mmHg 41%
    16:00 +26°C° 0 mm 9 mps 764 mmHg 43%
    17:00 +24°C° 0 mm 8 mps 764 mmHg 45%
    18:00 +24°C° 0 mm 8 mps 765 mmHg 47%
    19:00 +24°C° 0 mm 8 mps 765 mmHg 48%
    20:00 +24°C° 0 mm 8 mps 765 mmHg 49%
    21:00 +24°C° 0 mm 7 mps 765 mmHg 50%
    22:00 +23°C° 0 mm 7 mps 765 mmHg 50%
    23:00 +23°C° 0 mm 7 mps 765 mmHg 50%

    26 November, Sunday

    Time Temperature Precipitation Wind Pressure Humidity
    00:00 +23°C° 0 mm 7 mps 765 mmHg 50%
    01:00 +23°C° 0 mm 7 mps 765 mmHg 50%
    02:00 +23°C° 0 mm 7 mps 765 mmHg 50%
    03:00 +23°C° 0 mm 7 mps 765 mmHg 50%
    04:00 +23°C° 0 mm 7 mps 765 mmHg 50%
    05:00 +23°C° 0 mm 7 mps 765 mmHg 51%
    06:00 +23°C° 0 mm 7 mps 765 mmHg 51%
    07:00 +23°C° 0 mm 7 mps 766 mmHg 49%
    08:00 +24°C° 0 mm 7 mps 766 mmHg 48%
    09:00 +26°C° 0 mm 6 mps 766 mmHg 46%
    10:00 +26°C° 0 mm 6 mps 765 mmHg 45%
    11:00 +26°C° 0 mm 6 mps 765 mmHg 44%
    12:00 +27°C° 0 mm 5 mps 764 mmHg 43%
    13:00 +27°C° 0 mm 5 mps 764 mmHg 43%
    14:00 +27°C° 0 mm 6 mps 764 mmHg 43%
    15:00 +27°C° 0 mm 6 mps 764 mmHg 43%
    16:00 +27°C° 0 mm 6 mps 764 mmHg 45%
    17:00 +26°C° 0 mm 6 mps 764 mmHg 47%
    18:00 +26°C° 0 mm 6 mps 764 mmHg 49%
    19:00 +26°C° 0 mm 5 mps 764 mmHg 49%
    20:00 +26°C° 0 mm 5 mps 764 mmHg 50%
    21:00 +26°C° 0 mm 4 mps 764 mmHg 50%
    22:00 +25°C° 0 mm 4 mps 764 mmHg 51%
    23:00 +25°C° 0 mm 3 mps 764 mmHg 51%
    Show more